Tegucigalpa, Honduras

9:28 AM CST on December 15, 2017 (GMT -0600)
Toncontin International

Weather History for MHTG - November, 2012

Change the Weather History Date:

Tuesday, November 27, 2012

  Actual Average Record
Temperature  
Mean Temperature 69 °F -  
Max Temperature 75 °F 76 °F 84 °F (2001)
Min Temperature 63 °F 58 °F 50 °F (1999)
Cooling Degree Days 4    
Growing Degree Days 19 (Base 50)    
Moisture  
Dew Point 65 °F    
Average Humidity 89    
Maximum Humidity 100    
Minimum Humidity 73    
Precipitation  
Precipitation 0.00 in 0.02 in - ()
Sea Level Pressure  
Sea Level Pressure 30.12 in    
Wind  
Wind Speed 7 mph ()    
Max Wind Speed 14 mph    
Max Gust Speed -    
Visibility 5.8 miles    
Events Rain    
Averages and records for this station are not official NWS values.
T = Trace of Precipitation, MM = Missing Value Source: Averaged Metar Reports

Daily Weather History Graph

Daily Weather History Graph

Search for Another Location

Airport or City:

Trip Planner

Search our weather history database for the weather conditions in past years. The results will help you decide how hot, cold, wet, or windy it might be!

Date:

Astronomy

Nov. 27, 2012 Rise Set
Actual Time 5:55 AM CST 5:18 PM CST
Civil Twilight 5:32 AM CST 5:40 PM CST
Nautical Twilight 5:06 AM CST 6:07 PM CST
Astronomical Twilight 4:40 AM CST 6:33 PM CST
Moon 4:47 PM CST (11/27) 5:03 AM CST (11/27)
Length of Visible Light 12h 08m
Length of Day
11h 22m
Waxing Gibbous, 99% of the Moon is Illuminated
Nov 27
Waxing Gibbous
Nov 28
Full
Dec 6
Last Quarter
Dec 13
New
Dec 19
First Quarter

Hourly Weather History & Observations

Time (CST) Temp. Dew Point Humidity Pressure Visibility Wind Dir Wind Speed Gust Speed Precip Events Conditions
12:00 AM 66 °F 63 °F 88% 30.02 in 6 mi North 9.2 mph - -   Haze
12:00 AM 66.2 °F 62.6 °F 88% 30.15 in 6.2 mi North 9.2 mph - N/A   Mostly Cloudy
1:00 AM 66.2 °F 62.6 °F 88% 30.15 in 6.2 mi North 6.9 mph - N/A   Mostly Cloudy
2:00 AM - - N/A% 30.12 in 6.2 mi North 6.9 mph - N/A   Scattered Clouds
3:00 AM 64 °F 63 °F 94% 29.99 in 6 mi North 4.6 mph - -   Haze
3:00 AM 64.4 °F 62.6 °F 94% 30.12 in 6.2 mi North 4.6 mph - N/A   Mostly Cloudy
4:00 AM 62.6 °F 62.6 °F 100% 30.12 in 6.2 mi North 4.6 mph - N/A   Mostly Cloudy
5:00 AM 62.6 °F 62.6 °F 100% 30.12 in 6.2 mi NNE 6.9 mph - N/A   Scattered Clouds
6:00 AM 62.6 °F 62.6 °F 100% 30.12 in 3.7 mi North 8.1 mph - N/A   Mostly Cloudy
7:00 AM 64.4 °F 62.6 °F 94% 30.15 in 1.9 mi North 6.9 mph - N/A   Mostly Cloudy
8:00 AM 66.2 °F 64.4 °F 94% 30.18 in 6.2 mi North 4.6 mph - N/A   Mostly Cloudy
9:00 AM 69 °F 64 °F 79% 30.02 in 6 mi North 11.5 mph - -   Haze
9:00 AM 68.0 °F 64.4 °F 88% 30.18 in 6.2 mi North 11.5 mph - N/A   Mostly Cloudy
10:00 AM 69.8 °F 64.4 °F 83% 30.18 in 6.2 mi North 9.2 mph - N/A   Mostly Cloudy
11:00 AM 71.6 °F 64.4 °F 78% 30.15 in 6.2 mi North 13.8 mph - N/A   Mostly Cloudy
12:00 PM 73 °F 66 °F 73% 29.95 in 6 mi North 11.5 mph - - Rain Light Drizzle
12:00 PM 73.4 °F 66.2 °F 78% 30.15 in 6.2 mi North 11.5 mph - N/A   Drizzle
1:00 PM 75.2 °F 68.0 °F 78% 30.12 in 6.2 mi North 9.2 mph - N/A   Mostly Cloudy
2:00 PM 75.2 °F 68.0 °F 78% 10.19 in 6.2 mi North 9.2 mph - N/A   Mostly Cloudy
3:00 PM 73.4 °F 66.2 °F 78% 30.09 in 6.2 mi North 10.4 mph - N/A   Scattered Clouds
4:00 PM 73.4 °F 66.2 °F 78% 30.09 in 5.0 mi North 13.8 mph - N/A   Scattered Clouds
5:00 PM 69.8 °F 66.2 °F 88% 30.09 in 6.2 mi North 9.2 mph - N/A   Scattered Clouds
6:00 PM 69.8 °F 66.2 °F 88% 30.12 in 6.2 mi North 5.8 mph - N/A   Scattered Clouds
7:00 PM 68.0 °F 66.2 °F 94% 30.15 in 6.2 mi North 4.6 mph - N/A   Scattered Clouds
8:00 PM 68.0 °F 66.2 °F 94% 30.15 in 6.2 mi North 8.1 mph - N/A   Scattered Clouds
9:00 PM 68 °F 67 °F 94% 30.02 in 6 mi NNE 6.9 mph - -   Haze
9:00 PM 68.0 °F 66.2 °F 94% 30.18 in 6.2 mi NNE 6.9 mph - N/A   Scattered Clouds
10:00 PM 68.0 °F 68.0 °F 100% 30.18 in 6.2 mi NNE 8.1 mph - N/A   Mostly Cloudy
11:00 PM 68.0 °F 68.0 °F 100% 30.18 in 5.0 mi NNE 4.6 mph - N/A   Mostly Cloudy